Home   Weather   Theni   Past weeks

Flag for India Past Weather in Theni, Tamil Nadu, India — Yesterday and Last 2 Weeks

Now
95 °F

Passing clouds.


Feels Like: 101 °F
Forecast: 76 / 99 °F
Wind: 9 mph from South

Location: Coimbatore / Peelamedu

Current Time: Apr 24, 2017 at 1:08:41 pm

Latest Report: Apr 24, 2017 at 12:30 pm


Visibility: 4 mi

Pressure: 29.89 "Hg

Humidity: 44%

Dew Point: 70 °F

Location of TheniLocation

Past Weather in Theni — Graph

°F

Theni Temperature Yesterday

Maximum temperature yesterday: 99 °F (at 3:00 pm)
Minimum temperature yesterday: 75 °F (at 5:30 am)
Average temperature yesterday: 85 °F

High & Low Weather Summary for the Past Weeks

 TemperatureHumidityPressure
High100 °F (Apr 9, 3:30 pm)94% (Apr 12, 5:30 am)29.95 "Hg (Apr 12, 5:30 am)
Low75 °F (Apr 23, 5:30 am)24% (Apr 9, 4:00 pm)29.71 "Hg (Apr 12, 5:00 pm)
Average86 °F63%29.84 "Hg
* Reported Apr 9 11:30 am — Apr 24 11:30 am, Theni, Weather by CustomWeather, © 2017

Note: Actual official high and low records may vary slightly from our data, if they occured in-between our weather recording intervals... More about our weather records

Advertising

Theni Weather History for the Previous 24 Hours

Scroll right to see more
 ConditionsComfort  
Time TempWeatherWind HumidityBarometerVisibility
11:30 am
Mon, Apr 24
91 °FScattered clouds.12 mph49%29.89 "Hg4 mi
10:30 am90 °FPassing clouds.12 mph52%29.92 "Hg4 mi
10:00 am88 °FHaze.9 mph59%29.92 "Hg3 mi
9:30 am86 °FHaze.9 mph62%29.92 "Hg3 mi
9:00 am86 °FScattered clouds.8 mph62%29.92 "Hg3 mi
8:30 am84 °FScattered clouds.12 mph66%29.92 "Hg2 mi
8:00 am82 °FFog.7 mph70%29.89 "Hg2 mi
7:30 am81 °FFog.7 mph74%29.89 "Hg2 mi
7:00 am79 °FFog.6 mph84%29.86 "Hg2 mi
6:30 am79 °FFog.7 mph84%29.86 "Hg2 mi
5:30 am79 °FFog.7 mph84%29.83 "Hg3 mi
5:00 am79 °FPassing clouds.5 mph89%29.83 "Hg3 mi
4:30 am79 °FPassing clouds.5 mph89%29.83 "Hg4 mi
4:00 am79 °FPassing clouds.6 mph89%29.80 "Hg4 mi
3:30 am81 °FPassing clouds.8 mph84%29.80 "Hg4 mi
3:00 am81 °FPassing clouds.8 mph84%29.83 "Hg4 mi
2:30 am81 °FPassing clouds.7 mph84%29.83 "Hg4 mi
1:30 am81 °FPassing clouds.9 mph84%29.83 "Hg4 mi
12:30 am81 °FPassing clouds.9 mph84%29.83 "Hg4 mi
12:00 am81 °FPassing clouds.9 mph84%29.86 "Hg4 mi
11:30 pm
Sun, Apr 23
81 °FPassing clouds.12 mph79%29.86 "Hg4 mi
11:00 pm82 °FPassing clouds.8 mph79%29.86 "Hg4 mi
10:30 pm82 °FPassing clouds.12 mph79%29.86 "Hg4 mi
10:00 pm82 °FPassing clouds.8 mph79%29.86 "Hg4 mi
9:30 pm82 °FPassing clouds.12 mph79%29.86 "Hg4 mi
9:00 pm84 °FPassing clouds.12 mph70%29.86 "Hg4 mi
8:30 pm86 °FPassing clouds.12 mph66%29.83 "Hg4 mi
8:00 pm86 °FPassing clouds.10 mph66%29.83 "Hg4 mi
7:30 pm88 °FPassing clouds.12 mph62%29.83 "Hg4 mi
7:00 pm88 °FPassing clouds.13 mph62%29.80 "Hg4 mi
6:30 pm90 °FPassing clouds.10 mph59%29.80 "Hg4 mi
5:30 pm95 °FPassing clouds.10 mph47%29.77 "Hg4 mi
5:00 pm95 °FPassing clouds.9 mph44%29.77 "Hg4 mi
4:30 pm97 °FPassing clouds.12 mph42%29.77 "Hg4 mi
4:00 pm97 °FPassing clouds.7 mph39%29.77 "Hg4 mi
3:30 pm97 °FPassing clouds.7 mph39%29.77 "Hg4 mi
3:00 pm99 °FPassing clouds.6 mph37%29.80 "Hg4 mi
2:30 pm97 °FPassing clouds.5 mph39%29.80 "Hg4 mi
2:00 pm97 °FPassing clouds.5 mph39%29.83 "Hg4 mi
1:30 pm95 °FPassing clouds.3 mph41%29.83 "Hg4 mi
Weather by CustomWeather, © 2017

See weather overviewHow to use our weather pages